User: anonymous   Login
Location: Gull Harbor
(47.1000°N, 122.9000°W)
Time: 15:52:06
(UTC-07:00)
Language:

STARLINK-2667 - Orbit

View from above orbital plane
View from above orbital plane
View from above satellite
View from above satellite

Ground track
Ground track

The orbit data is extracted from the following two-line orbital elements,

1 48663C 21044AB  21300.75731152  .00010270  00000-0  68836-3 0  3005
2 48663  53.0547  67.0435 0001402  94.5354  57.8512 15.06376271    12
Epoch (UTC): 27 October 2021 18:10:31
Eccentricity: 0.0001402
inclination: 53.0547°
perigee height: 546 km
apogee height: 548 km
right ascension of ascending node: 67.0435°
argument of perigee: 94.5354°
revolutions per day: 15.06376271
mean anomaly at epoch: 57.8512°
orbit number at epoch: 1

The dashed part of the orbit path shows where the satellite is in the earth's shadow,  

DLR